Regional Weather Roundup
Issued by NWS

Home | Current Version | Previous Version | Graphics & Text | Print | Product List | Glossary Off
Versions: 1 2 3 4 5 6 7 8 9 10 11 12 13 14 15 16 17 18 19 20 21 22 23 24 25 26 27 28 29 30 31 32 33 34 35 36 37 38 39 40 41 42 43 44 45 46 47 48 49 50

000
ASUS43 KFSD 030002
RWRSD

WEATHER ROUNDUP FOR SOUTH DAKOTA
NATIONAL WEATHER SERVICE SIOUX FALLS SD
700 PM CDT TUE JUN 02 2015

NOTE: "FAIR" INDICATES FEW OR NO CLOUDS BELOW 12,000 FEET WITH NO
SIGNIFICANT WEATHER AND/OR OBSTRUCTIONS TO VISIBILITY.


SDZ001>005-009-010-012>017-030100-
NORTHWEST AND NORTH CENTRAL SOUTH DAKOTA

CITY           SKY/WX    TMP DP  RH WIND       PRES   REMARKS
BUFFALO          N/A     75  54  47 NW22G29   29.76R
FAITH            N/A     79  54  41 N12       29.77R
MOBRIDGE       MOSUNNY   86  65  49 N8        29.67S
$$

SDZ012>016-024>037-041>051-057-063-072>074-030100-
SOUTHWEST AND SOUTH CENTRAL SOUTH DAKOTA

CITY           SKY/WX    TMP DP  RH WIND       PRES   REMARKS
RAPID CTY ARPT CLOUDY    71  63  75 N3        29.83R THUNDER
PIERRE         MOSUNNY   86  61  42 N8        29.70R
CUSTER         CLOUDY    67  57  70 SE10      29.96S
PHILIP         MOSUNNY   80  62  54 N7        29.76R
PINE RIDGE     LGT RAIN  77  43  29 NW15G26   29.84R
WINNER         FAIR      90  58  33 S16       29.73S
$$

SDZ004>011-016>023-039-040-030100-
NORTHEAST SOUTH DAKOTA

CITY           SKY/WX    TMP DP  RH WIND       PRES   REMARKS
ABERDEEN       MOSUNNY   84  64  50 S16       29.66F
WATERTOWN      MOSUNNY   79  60  52 S18G29    29.76S
BROOKINGS      SUNNY     79  61  53 S23G31    29.80S
SISSETON         N/A     82  62  50 S17       29.72F
$$

SDZ017-020-022-023-036>040-048>070-030100-
SOUTHEAST SOUTH DAKOTA

CITY           SKY/WX    TMP DP  RH WIND       PRES   REMARKS
SIOUX FALLS    MOSUNNY   77  62  59 S18G25    29.82S
HURON          MOSUNNY   82  62  50 S18G26    29.71S
CHAMBERLAIN    PTSUNNY   83  64  54 S16G23    29.71S
MITCHELL       MOSUNNY   81  61  50 S18G24    29.75S
YANKTON        MOSUNNY   81  63  54 S14G23    29.79S
$$

ABBREVIATIONS USED IN REMARKS
   TC - TEMPERATURE IN CELSIUS
  WCI - WIND CHILL INDEX
   HX - HEAT INDEX
  VSB - VISIBILITY




USA.gov is the U.S. government's official web portal to all federal, state and local government web resources and services.